+ View the NASA Portal
+ Center for Near-Earth Object Studies
IMPORTANT:
The SSD Announcement email list is now available. Major changes are coming in the near future, including possible hostname and/or URL changes. To be notified of such changes, subscribe to this email list.
Please visit
this page
for more details.
Don't show this message again
JPL Small-Body Database Browser
Search:
[
help
]
27179 (1999 BJ10)
Classification:
Main-belt Asteroid
SPK-ID:
2027179
[
Ephemeris
|
Orbit Diagram
|
Orbital Elements
|
Mission Design
|
Physical Parameters
|
Discovery Circumstances
]
[ show orbit diagram ]
Orbital Elements at Epoch 2458600.5 (2019-Apr-27.0) TDB
Reference:
JPL 23
(heliocentric ecliptic J2000)
Element
Value
Uncertainty (1-sigma)
Units
e
.07106955859189737
3.3737e-08
a
2.744643330599851
1.3585e-08
au
q
2.549582740601925
9.5774e-08
au
i
2.6145086783748
3.8959e-06
deg
node
272.4095657774419
9.563e-05
deg
peri
141.7350651254473
0.00010223
deg
M
238.1720084325396
3.602e-05
deg
t
p
2459162.546029044819
(2020-Nov-09.04602904)
0.00016755
TDB
period
1660.838103401663
4.55
1.2331e-05
3.376e-08
d
yr
n
.2167580327442284
1.6094e-09
deg/d
Q
2.939703920597778
1.4551e-08
au
Orbit Determination Parameters
# obs. used (total)
1658
data-arc span
8063 days (22.08 yr)
first obs. used
1997-10-04
last obs. used
2019-11-01
planetary ephem.
DE431
SB-pert. ephem.
SB431-N16
condition code
0
norm. resid. RMS
.51421
source
ORB
producer
Otto Matic
solution date
2019-Nov-07 04:58:03
Additional Information
Earth MOID
= 1.56107 au
Jupiter MOID
= 2.3065 au
T_jup
= 3.343
[ show covariance matrix ]
[
Ephemeris
|
Orbit Diagram
|
Orbital Elements
|
Mission Design
|
Physical Parameters
|
Discovery Circumstances
]
Physical Parameter Table
Parameter
Symbol
Value
Units
Sigma
Reference
Notes
absolute magnitude
H
13.7
n/a
MPO452550
diameter
diameter
5.623
km
0.132
urn:nasa:pds:neowise_diameters_albedos::2.0[mainbelt] (http://adsabs.harvard.edu/abs/2011ApJ...741...68M)
geometric albedo
albedo
0.185
0.029
urn:nasa:pds:neowise_diameters_albedos::2.0[mainbelt] (http://adsabs.harvard.edu/abs/2011ApJ...741...68M)
27179 (1999 BJ10)
Discovered 1999-Jan-23 by Korlevic, K. at Visnjan
Reference:
20010804/Numbers.arc
Last Updated:
2004-04-19
Alternate Designations
1999 BJ10
= 2000 JO60
[
Ephemeris
|
Orbit Diagram
|
Orbital Elements
|
Mission Design
|
Physical Parameters
|
Discovery Circumstances
]
2019-Dec-12 19:36 UT
(server date/time)
Site Manager:
Ryan S. Park
Webmaster
:
Alan B. Chamberlin